Date String (YYYY-MM-DD hh:mm:ss) UTC,Instrument flags,Ambient pressure (hPa),Sample flow (lpm),Bypass flow (lpm),Sample temperature (°C),Ambient temperature (°C),ASC tube jacket temperature (°C),LED temperature (°C),Box temperature (°C),Sample RH (%),Span deviation,Mass concentration (μg/m³),Mass concentration (μg/m³),Mass concentration (μg/m³)
DateTimeUTC,F1_M11,P_M11,Q1_M11,Q2_M11,T1_M11,T2_M11,T3_M11,T4_M11,T5_M11,U1_M11,ZSPAN_M11,X0_M11,X2_M11,X1_M11
2022-11-30 16:00:00,,0827.1,5.01,0.00,22.2,21.0,00.0,31.1,24.0,08.0,0000.0,0012.42,0007.47,0006.86
2022-11-30 16:01:00,,0827.0,5.00,0.00,22.2,21.0,00.0,31.1,23.9,07.9,0000.0,0012.60,0007.40,0006.79
2022-11-30 16:02:00,,0827.2,4.99,0.00,22.2,21.1,00.0,31.1,24.0,08.0,0000.0,0013.77,0007.38,0006.72
2022-11-30 16:03:00,,0827.2,5.00,0.00,22.2,21.0,00.0,31.1,23.9,07.8,0000.0,0013.88,0007.24,0006.62
2022-11-30 16:04:00,,0827.1,5.01,0.00,22.2,20.9,00.0,31.1,23.8,07.7,0000.0,0013.61,0007.12,0006.53
2022-11-30 16:05:00,,0827.1,4.99,0.00,22.1,20.6,00.0,31.1,23.8,07.6,0000.0,0013.24,0007.02,0006.47
2022-11-30 16:06:00,,0827.1,5.00,0.00,22.1,20.5,00.0,31.1,23.8,07.7,0000.0,0012.36,0006.89,0006.38
2022-11-30 16:07:00,,0827.1,5.00,0.00,22.1,20.5,00.0,31.1,23.8,07.7,0000.0,0012.04,0006.73,0006.27
2022-11-30 16:08:00,,0827.1,5.00,0.00,22.1,20.6,00.0,31.0,23.8,07.7,0000.0,0012.10,0006.57,0006.16
2022-11-30 16:09:00,,0827.0,5.01,0.00,22.1,20.7,00.0,31.0,23.8,07.8,0000.0,0012.05,0006.56,0006.12
2022-11-30 16:10:00,,0827.1,4.98,0.00,22.1,20.7,00.0,31.0,23.8,07.8,0000.0,0012.07,0006.55,0006.12
2022-11-30 16:11:00,,0827.0,5.00,0.00,22.1,20.8,00.0,31.0,23.8,07.7,0000.0,0011.90,0006.49,0006.07
2022-11-30 16:12:00,,0827.1,5.01,0.00,22.1,21.2,00.0,31.0,23.9,07.7,0000.0,0011.70,0006.48,0006.05
2022-11-30 16:13:00,,0827.1,4.99,0.00,22.2,22.4,00.0,31.0,24.2,07.7,0000.0,0010.70,0006.48,0006.07
2022-11-30 16:14:00,,0826.8,5.01,0.00,22.3,22.5,00.0,31.0,24.3,07.7,0000.0,0010.78,0006.59,0006.16
2022-11-30 16:15:00,,0826.8,4.97,0.00,22.4,22.3,00.0,31.1,24.3,07.8,0000.0,0010.91,0006.68,0006.25
2022-11-30 16:16:00,,0827.2,5.01,0.00,22.4,22.0,00.0,31.1,24.3,07.8,0000.0,0011.13,0006.74,0006.28
2022-11-30 16:17:00,,0827.1,4.99,0.00,22.4,21.8,00.0,31.1,24.3,07.6,0000.0,0011.39,0006.80,0006.34
2022-11-30 16:18:00,,0827.0,5.00,0.00,22.4,21.7,00.0,31.2,24.3,07.5,0000.0,0011.42,0006.83,0006.38
2022-11-30 16:19:00,,0827.0,5.00,0.00,22.4,21.5,00.0,31.2,24.2,07.7,0000.0,0011.59,0006.96,0006.48
2022-11-30 16:20:00,,0827.0,5.00,0.00,22.4,21.4,00.0,31.2,24.2,07.5,0000.0,0011.41,0007.01,0006.52
2022-11-30 16:21:00,,0827.1,4.98,0.00,22.4,21.4,00.0,31.2,24.2,07.4,0000.0,0011.33,0006.95,0006.48
2022-11-30 16:22:00,,0827.1,5.01,0.00,22.4,21.4,00.0,31.2,24.2,07.4,0000.0,0011.30,0006.89,0006.42
2022-11-30 16:23:00,,0826.9,5.00,0.00,22.4,21.3,00.0,31.2,24.2,07.4,0000.0,0011.49,0006.84,0006.38
2022-11-30 16:24:00,,0826.9,4.99,0.00,22.4,21.3,00.0,31.2,24.2,07.4,0000.0,0011.53,0006.79,0006.36
2022-11-30 16:25:00,,0827.0,5.02,0.00,22.4,21.3,00.0,31.2,24.2,07.5,0000.0,0011.30,0006.72,0006.30
2022-11-30 16:26:00,,0827.2,4.99,0.00,22.4,21.3,00.0,31.2,24.2,07.6,0000.0,0010.71,0006.62,0006.22
2022-11-30 16:27:00,,0827.2,4.99,0.00,22.4,21.3,00.0,31.2,24.2,07.5,0000.0,0010.55,0006.56,0006.17
2022-11-30 16:28:00,,0826.9,5.01,0.00,22.4,21.3,00.0,31.2,24.3,07.3,0000.0,0010.32,0006.52,0006.14
2022-11-30 16:29:00,,0826.9,5.00,0.00,22.4,21.3,00.0,31.2,24.2,07.3,0000.0,0010.33,0006.48,0006.10
2022-11-30 16:30:00,,0827.0,5.00,0.00,22.4,21.3,00.0,31.3,24.3,07.4,0000.0,0010.15,0006.38,0006.01
2022-11-30 16:31:00,,0827.1,5.01,0.00,22.5,21.3,00.0,31.3,24.3,07.6,0000.0,0009.95,0006.32,0006.00
2022-11-30 16:32:00,,0827.0,5.00,0.00,22.5,21.3,00.0,31.3,24.4,07.4,0000.0,0010.29,0006.32,0006.02
2022-11-30 16:33:00,,0826.8,4.99,0.00,22.5,21.4,00.0,31.3,24.4,07.4,0000.0,0010.42,0006.30,0006.00
2022-11-30 16:34:00,,0827.0,5.01,0.00,22.5,21.4,00.0,31.3,24.4,07.4,0000.0,0010.23,0006.35,0006.02
2022-11-30 16:35:00,,0826.9,4.99,0.00,22.5,21.4,00.0,31.3,24.4,07.7,0000.0,0010.39,0006.39,0006.05
2022-11-30 16:36:00,,0827.0,5.00,0.00,22.5,21.4,00.0,31.3,24.3,07.6,0000.0,0010.44,0006.39,0006.05
2022-11-30 16:37:00,,0826.9,5.01,0.00,22.5,21.4,00.0,31.3,24.4,07.5,0000.0,0010.39,0006.35,0006.04
2022-11-30 16:38:00,,0826.9,4.98,0.00,22.5,21.4,00.0,31.3,24.4,07.5,0000.0,0010.28,0006.28,0005.99
2022-11-30 16:39:00,,0826.9,5.01,0.00,22.5,21.4,00.0,31.3,24.4,07.5,0000.0,0010.59,0006.27,0005.97
2022-11-30 16:40:00,,0826.9,4.99,0.00,22.5,21.4,00.0,31.3,24.4,07.4,0000.0,0010.69,0006.31,0005.98
2022-11-30 16:41:00,,0826.9,4.99,0.00,22.6,21.4,00.0,31.4,24.4,07.5,0000.0,0010.75,0006.33,0005.98
2022-11-30 16:42:00,,0826.9,5.00,0.00,22.6,21.4,00.0,31.4,24.4,07.5,0000.0,0011.09,0006.34,0005.97
2022-11-30 16:43:00,,0826.9,5.01,0.00,22.6,21.4,00.0,31.4,24.4,07.4,0000.0,0010.76,0006.33,0005.95
2022-11-30 16:44:00,,0826.9,4.98,0.00,22.6,21.4,00.0,31.4,24.4,07.6,0000.0,0010.60,0006.32,0005.95
2022-11-30 16:45:00,,0826.9,5.01,0.00,22.6,21.4,00.0,31.4,24.4,07.5,0000.0,0011.03,0006.30,0005.96
2022-11-30 16:46:00,,0826.8,5.01,0.00,22.6,21.4,00.0,31.4,24.5,07.6,0000.0,0011.03,0006.27,0005.92
2022-11-30 16:47:00,,0826.8,4.99,0.00,22.6,21.4,00.0,31.4,24.5,07.4,0000.0,0010.94,0006.23,0005.89
2022-11-30 16:48:00,,0827.0,5.00,0.00,22.6,21.4,00.0,31.4,24.5,07.6,0000.0,0010.97,0006.24,0005.88
2022-11-30 16:49:00,,0826.9,5.02,0.00,22.6,21.4,00.0,31.4,24.5,07.7,0000.0,0010.99,0006.24,0005.89
2022-11-30 16:50:00,,0827.1,4.99,0.00,22.6,21.4,00.0,31.4,24.5,07.6,0000.0,0011.07,0006.24,0005.90
2022-11-30 16:51:00,,0826.9,5.01,0.00,22.6,21.4,00.0,31.4,24.4,07.6,0000.0,0010.93,0006.25,0005.90
2022-11-30 16:52:00,,0826.8,5.01,0.00,22.7,21.4,00.0,31.4,24.5,07.6,0000.0,0010.84,0006.23,0005.92
2022-11-30 16:53:00,,0826.8,4.98,0.00,22.7,21.4,00.0,31.4,24.5,07.5,0000.0,0010.66,0006.25,0005.94
2022-11-30 16:54:00,,0826.8,5.00,0.00,22.7,21.5,00.0,31.4,24.5,07.6,0000.0,0010.53,0006.27,0005.96
2022-11-30 16:55:00,,0827.0,5.01,0.00,22.7,21.5,00.0,31.5,24.5,07.7,0000.0,0010.49,0006.30,0005.99
2022-11-30 16:56:00,,0826.9,4.98,0.00,22.7,21.5,00.0,31.5,24.5,07.7,0000.0,0010.15,0006.32,0006.00
2022-11-30 16:57:00,,0826.9,5.00,0.00,22.7,21.5,00.0,31.5,24.5,07.6,0000.0,0010.05,0006.31,0006.01
2022-11-30 16:58:00,,0826.8,5.01,0.00,22.7,21.5,00.0,31.5,24.5,07.6,0000.0,0010.51,0006.35,0006.03
2022-11-30 16:59:00,,0826.8,4.99,0.00,22.7,21.5,00.0,31.5,24.5,07.6,0000.0,0010.89,0006.39,0006.05
